OK,137,77,685,137,2014-10-01T01:40:00,0,28072012,201669
OK,120,88,685,120,2014-10-01T01:45:00,0,28072455,201669
OK,120,88,685,120,2014-10-01T01:50:00,0,28072904,201669
OK,120,88,685,120,2014-10-01T01:55:00,0,28073351,201669
OK,120,88,685,120,2014-10-01T02:05:00,0,28074117,201669
OK,120,88,685,120,2014-10-01T02:10:00,0,28074566,201669
OK,120,88,685,120,2014-10-01T02:15:00,0,28075006,201669
OK,120,88,685,120,2014-10-01T02:20:00,0,28075455,201669
OK,120,88,685,120,2014-10-01T02:25:00,0,28075904,201669
OK,120,88,685,120,2014-10-01T02:30:00,0,28076287,201669
OK,120,88,685,120,2014-10-01T02:35:00,0,28076736,201669
OK,120,88,685,120,2014-10-01T02:40:00,0,28077185,201669
OK,128,83,685,128,2014-10-01T02:45:00,1,28077634,201669
OK,161,66,685,161,2014-10-01T02:50:00,2,28078037,201669
OK,195,54,685,195,2014-10-01T02:55:00,1,28078486,201669
OK,195,54,685,195,2014-10-01T03:00:00,0,28078931,201669
OK,195,54,685,195,2014-10-01T03:05:00,0,28079379,201669
OK,153,69,685,153,2014-10-01T03:10:00,2,28079822,201669
OK,142,74,685,142,2014-10-01T03:15:00,2,28080271,201669
OK,142,74,685,142,2014-10-01T03:20:00,0,28080605,201669
OK,142,74,685,142,2014-10-01T03:25:00,0,28081054,201669
OK,142,74,685,142,2014-10-01T03:30:00,0,28081503,201669
OK,142,74,685,142,2014-10-01T03:35:00,0,28081950,201669
OK,129,82,685,129,2014-10-01T03:40:00,1,28082399,201669
OK,181,58,685,181,2014-10-01T03:45:00,1,28082832,201669
OK,162,65,685,162,2014-10-01T03:50:00,2,28083264,201669
OK,145,73,685,145,2014-10-01T03:55:00,3,28083713,201669
OK,168,63,685,168,2014-10-01T04:00:00,2,28084162,201669
OK,185,57,685,185,2014-10-01T04:05:00,3,28084603,201669
OK,156,68,685,156,2014-10-01T04:10:00,8,28085028,201669
OK,143,74,685,143,2014-10-01T04:15:00,4,28085477,201669
OK,182,58,685,182,2014-10-01T04:20:00,2,28085922,201669
OK,196,54,685,196,2014-10-01T04:25:00,1,28086371,201669
OK,170,62,685,170,2014-10-01T04:30:00,3,28086813,201669
OK,201,52,685,201,2014-10-01T04:35:00,10,28087262,201669
OK,201,52,685,201,2014-10-01T04:40:00,9,28087707,201669
OK,210,50,685,210,2014-10-01T04:45:00,2,28088156,201669
OK,179,59,685,179,2014-10-01T04:50:00,4,28088580,201669
OK,182,58,685,182,2014-10-01T04:55:00,7,28089029,201669
OK,189,56,685,189,2014-10-01T05:00:00,4,28089459,201669
OK,209,50,685,209,2014-10-01T05:05:00,3,28089908,201669
OK,218,48,685,218,2014-10-01T05:10:00,2,28090357,201669
OK,242,43,685,242,2014-10-01T05:15:00,2,28090701,201669
OK,195,54,685,195,2014-10-01T05:20:00,6,28091150,201669
OK,169,62,685,169,2014-10-01T05:25:00,6,28091599,201669
OK,201,52,685,201,2014-10-01T05:30:00,7,28092016,201669
OK,204,52,685,204,2014-10-01T05:35:00,7,28092465,201669
OK,170,62,685,170,2014-10-01T05:40:00,4,28092909,201669
OK,182,58,685,182,2014-10-01T05:45:00,3,28093350,201669
OK,189,56,685,189,2014-10-01T05:50:00,6,28093781,201669
OK,202,52,685,202,2014-10-01T05:55:00,6,28094230,201669
OK,234,45,685,234,2014-10-01T06:00:00,3,28094641,201669
OK,228,46,685,228,2014-10-01T06:05:00,6,28095086,201669
OK,198,53,685,198,2014-10-01T06:10:00,5,28095533,201669
OK,206,51,685,206,2014-10-01T06:15:00,4,28095982,201669
OK,199,53,685,199,2014-10-01T06:20:00,4,28096395,201669
OK,243,43,685,243,2014-10-01T06:25:00,4,28096844,201669
OK,194,54,685,194,2014-10-01T06:30:00,5,28097278,201669
OK,189,56,685,189,2014-10-01T06:35:00,5,28097727,201669
OK,226,47,685,226,2014-10-01T06:40:00,7,28098176,201669
OK,226,47,685,226,2014-10-01T06:45:00,8,28098613,201669
OK,210,50,685,210,2014-10-01T06:50:00,3,28099057,201669
OK,157,67,685,157,2014-10-01T06:55:00,1,28099505,201669
OK,206,51,685,206,2014-10-01T07:00:00,2,28099848,201669
OK,176,60,685,176,2014-10-01T07:10:00,5,28100604,201669
OK,175,60,685,175,2014-10-01T07:15:00,4,28101053,201669
OK,179,59,685,179,2014-10-01T07:20:00,4,28101424,201669
OK,179,59,685,179,2014-10-01T07:25:00,2,28101873,201669
OK,176,60,685,176,2014-10-01T07:30:00,4,28102309,201669
OK,192,55,685,192,2014-10-01T07:35:00,6,28102758,201669
OK,189,56,685,189,2014-10-01T07:40:00,9,28103185,201669
OK,178,59,685,178,2014-10-01T07:45:00,9,28103632,201669
OK,179,59,685,179,2014-10-01T07:50:00,9,28104077,201669
OK,179,59,685,179,2014-10-01T07:55:00,3,28104522,201669
OK,291,36,685,291,2014-10-01T08:00:00,1,28104963,201669
OK,206,51,685,206,2014-10-01T08:05:00,5,28105408,201669
OK,201,52,685,201,2014-10-01T08:10:00,3,28105848,201669
OK,192,55,685,192,2014-10-01T08:15:00,2,28106297,201669
OK,188,56,685,188,2014-10-01T08:20:00,2,28106734,201669
OK,189,56,685,189,2014-10-01T08:25:00,2,28107140,201669
OK,204,52,685,204,2014-10-01T08:30:00,8,28107572,201669
OK,175,60,685,175,2014-10-01T08:35:00,6,28108021,201669
OK,176,60,685,176,2014-10-01T08:40:00,7,28108460,201669
OK,198,53,685,198,2014-10-01T08:45:00,4,28108909,201669
OK,199,53,685,199,2014-10-01T08:50:00,2,28109337,201669
OK,173,61,685,173,2014-10-01T08:55:00,2,28109786,201669
OK,177,60,685,177,2014-10-01T09:00:00,2,28110129,201669
OK,177,60,685,177,2014-10-01T09:05:00,2,28110578,201669
OK,170,62,685,170,2014-10-01T09:10:00,1,28111001,201669
OK,193,55,685,193,2014-10-01T09:15:00,1,28111450,201669
OK,198,53,685,198,2014-10-01T09:20:00,2,28111879,201669
OK,204,52,685,204,2014-10-01T09:25:00,5,28112328,201669
OK,209,50,685,209,2014-10-01T09:30:00,6,28112669,201669
OK,200,53,685,200,2014-10-01T09:35:00,8,28113118,201669
OK,200,53,685,200,2014-10-01T09:40:00,4,28113542,201669
OK,207,51,685,207,2014-10-01T09:45:00,1,28113991,201669
OK,206,51,685,206,2014-10-01T09:50:00,2,28114423,201669
OK,142,74,685,142,2014-10-01T09:55:00,1,28114871,201669
OK,229,46,685,229,2014-10-01T10:00:00,3,28115226,201669
OK,201,52,685,201,2014-10-01T10:05:00,3,28115675,201669
OK,192,55,685,192,2014-10-01T10:10:00,3,28116087,201669
OK,175,60,685,175,2014-10-01T10:15:00,4,28116536,201669
OK,166,64,685,166,2014-10-01T10:20:00,4,28116944,201669
OK,178,59,685,178,2014-10-01T10:25:00,2,28117393,201669
OK,186,57,685,186,2014-10-01T10:30:00,2,28117818,201669
OK,195,54,685,195,2014-10-01T10:35:00,6,28118267,201669
OK,163,65,685,163,2014-10-01T10:40:00,4,28118712,201669
OK,171,62,685,171,2014-10-01T10:45:00,5,28119159,201669
OK,190,55,685,190,2014-10-01T10:50:00,5,28119603,201669
OK,192,55,685,192,2014-10-01T10:55:00,3,28120051,201669
OK,175,60,685,175,2014-10-01T11:00:00,4,28120499,201669
OK,176,60,685,176,2014-10-01T11:05:00,5,28120948,201669
OK,176,60,685,176,2014-10-01T11:10:00,5,28121331,201669
OK,267,39,685,267,2014-10-01T11:15:00,1,28121780,201669
OK,166,64,685,166,2014-10-01T11:20:00,6,28122218,201669
OK,149,71,685,149,2014-10-01T11:25:00,5,28122667,201669
OK,198,53,685,198,2014-10-01T11:30:00,4,28123108,201669
OK,202,52,685,202,2014-10-01T11:35:00,3,28123557,201669
OK,177,60,685,177,2014-10-01T11:40:00,5,28123989,201669
OK,183,58,685,183,2014-10-01T11:45:00,8,28124438,201669
OK,188,56,685,188,2014-10-01T11:50:00,5,28124840,201669
OK,170,62,685,170,2014-10-01T11:55:00,4,28125289,201669
OK,175,60,685,175,2014-10-01T12:00:00,4,28125718,201669
OK,179,59,685,179,2014-10-01T12:05:00,3,28126167,201669
OK,181,58,685,181,2014-10-01T12:10:00,9,28126519,201669
OK,185,57,685,185,2014-10-01T12:15:00,10,28126968,201669
OK,196,54,685,196,2014-10-01T12:20:00,7,28127417,201669
OK,203,52,685,203,2014-10-01T12:25:00,4,28127866,201669
OK,187,56,685,187,2014-10-01T12:30:00,6,28128294,201669
OK,165,64,685,165,2014-10-01T12:35:00,3,28128743,201669
OK,173,61,685,173,2014-10-01T12:40:00,4,28129178,201669
OK,178,59,685,178,2014-10-01T12:45:00,7,28129627,201669
OK,171,62,685,171,2014-10-01T12:50:00,10,28130061,201669
OK,175,60,685,175,2014-10-01T12:55:00,9,28130510,201669
OK,179,59,685,179,2014-10-01T13:00:00,4,28130938,201669
OK,187,56,685,187,2014-10-01T13:05:00,5,28131387,201669
OK,208,51,685,208,2014-10-01T13:10:00,4,28131824,201669
OK,200,53,685,200,2014-10-01T13:15:00,6,28132273,201669
OK,200,53,685,200,2014-10-01T13:20:00,5,28132711,201669
OK,176,60,685,176,2014-10-01T13:25:00,4,28133158,201669
OK,177,60,685,177,2014-10-01T13:30:00,9,28133596,201669
OK,177,60,685,177,2014-10-01T13:35:00,7,28134045,201669
OK,164,64,685,164,2014-10-01T13:40:00,2,28134484,201669
OK,199,53,685,199,2014-10-01T13:45:00,7,28134933,201669
OK,203,52,685,203,2014-10-01T13:50:00,6,28135352,201669
OK,186,57,685,186,2014-10-01T13:55:00,4,28135801,201669
OK,198,53,685,198,2014-10-01T14:00:00,6,28136238,201669
OK,199,53,685,199,2014-10-01T14:05:00,5,28136687,201669
OK,196,54,685,196,2014-10-01T14:10:00,5,28137127,201669
OK,214,49,685,214,2014-10-01T14:15:00,4,28137576,201669
OK,226,47,685,226,2014-10-01T14:20:00,5,28138010,201669
OK,203,52,685,203,2014-10-01T14:25:00,5,28138459,201669
OK,198,53,685,198,2014-10-01T14:30:00,5,28138887,201669
OK,195,54,685,195,2014-10-01T14:35:00,4,28139336,201669
OK,187,56,685,187,2014-10-01T14:40:00,4,28139747,201669
OK,180,59,685,180,2014-10-01T14:45:00,3,28140196,201669
OK,180,59,685,180,2014-10-01T14:50:00,0,28140638,201669
OK,181,58,685,181,2014-10-01T14:55:00,2,28141087,201669
OK,189,56,685,189,2014-10-01T15:00:00,3,28141513,201669
OK,203,52,685,203,2014-10-01T15:05:00,0,28141962,201669
OK,203,52,685,203,2014-10-01T15:10:00,0,28142390,201669
OK,197,53,685,197,2014-10-01T15:15:00,1,28142839,201669
OK,183,58,685,183,2014-10-01T15:20:00,2,28143266,201669
OK,170,62,685,170,2014-10-01T15:25:00,1,28143715,201669
OK,170,62,685,170,2014-10-01T15:30:00,0,28144163,201669
OK,136,78,685,136,2014-10-01T15:35:00,1,28144612,201669
OK,136,78,685,136,2014-10-01T15:40:00,1,28145033,201669
OK,174,61,685,174,2014-10-01T15:45:00,2,28145447,201669
OK,174,61,685,174,2014-10-01T15:50:00,2,28145896,201669
OK,169,62,685,169,2014-10-01T15:55:00,1,28146345,201669
OK,170,62,685,170,2014-10-01T16:00:00,3,28146794,201669
OK,170,62,685,170,2014-10-01T16:05:00,1,28147202,201669
OK,138,77,685,138,2014-10-01T16:10:00,2,28147646,201669
OK,140,75,685,140,2014-10-01T16:15:00,3,28148095,201669
OK,162,65,685,162,2014-10-01T16:20:00,2,28148496,201669
OK,138,77,685,138,2014-10-01T16:25:00,0,28148945,201669
OK,192,55,685,192,2014-10-01T16:30:00,1,28149384,201669
OK,192,55,685,192,2014-10-01T16:35:00,1,28149833,201669
OK,161,66,685,161,2014-10-01T16:40:00,1,28150259,201669
OK,161,66,685,161,2014-10-01T16:45:00,1,28150708,201669
OK,179,59,685,179,2014-10-01T16:50:00,2,28151126,201669
OK,179,59,685,179,2014-10-01T16:55:00,2,28151575,201669
OK,179,59,685,179,2014-10-01T17:05:00,0,28152024,201669
OK,166,64,685,166,2014-10-01T17:10:00,1,28152473,201669
OK,153,69,685,153,2014-10-01T17:15:00,2,28152919,201669
OK,158,67,685,158,2014-10-01T17:20:00,2,28153366,201669
OK,166,64,685,166,2014-10-01T17:25:00,2,28153815,201669
OK,157,67,685,157,2014-10-01T17:30:00,1,28154225,201669
OK,157,67,685,157,2014-10-01T17:35:00,0,28154674,201669
OK,157,67,685,157,2014-10-01T17:40:00,0,28155116,201669
OK,157,67,685,157,2014-10-01T17:45:00,0,28155564,201669
OK,157,67,685,157,2014-10-01T17:50:00,0,28155982,201669
OK,157,67,685,157,2014-10-01T17:55:00,0,28156431,201669
OK,157,67,685,157,2014-10-01T18:00:00,0,28156879,201669
OK,157,67,685,157,2014-10-01T18:05:00,0,28157318,201669
OK,157,67,685,157,2014-10-01T18:10:00,0,28157748,201669
OK,157,67,685,157,2014-10-01T18:15:00,0,28158196,201669
OK,162,65,685,162,2014-10-01T18:20:00,1,28158640,201669
OK,159,66,685,159,2014-10-01T18:25:00,3,28159085,201669
OK,143,74,685,143,2014-10-01T18:35:00,2,28159867,201669
OK,156,68,685,156,2014-10-01T18:40:00,0,28160316,201669
OK,138,77,685,138,2014-10-01T18:45:00,1,28160765,201669
OK,138,77,685,138,2014-10-01T18:50:00,0,28161203,201669
OK,138,77,685,138,2014-10-01T18:55:00,0,28161652,201669
OK,138,77,685,138,2014-10-01T19:00:00,0,28162069,201669
OK,138,77,685,138,2014-10-01T19:05:00,0,28162518,201669
OK,138,77,685,138,2014-10-01T19:10:00,0,28162912,201669
OK,138,77,685,138,2014-10-01T19:15:00,0,28163351,201669
OK,115,92,685,115,2014-10-01T19:20:00,1,28163799,201669
OK,115,92,685,115,2014-10-01T19:25:00,1,28164248,201669
OK,115,92,685,115,2014-10-01T19:30:00,0,28164679,201669
OK,115,92,685,115,2014-10-01T19:35:00,0,28165128,201669
OK,115,92,685,115,2014-10-01T19:40:00,0,28165553,201669
OK,115,92,685,115,2014-10-01T19:45:00,0,28166001,201669
OK,115,92,685,115,2014-10-01T19:50:00,0,28166437,201669
OK,115,92,685,115,2014-10-01T19:55:00,0,28166804,201669
OK,115,92,685,115,2014-10-01T20:00:00,0,28167253,201669
OK,115,92,685,115,2014-10-01T20:05:00,0,28167682,201669
OK,115,92,685,115,2014-10-01T20:10:00,0,28168115,201669
OK,115,92,685,115,2014-10-01T20:15:00,0,28168564,201669
OK,115,92,685,115,2014-10-01T20:20:00,0,28169009,201669
OK,115,92,685,115,2014-10-01T20:25:00,0,28169458,201669
OK,115,92,685,115,2014-10-01T20:30:00,0,28169906,201669
OK,115,92,685,115,2014-10-01T20:35:00,0,28170332,201669
OK,115,92,685,115,2014-10-01T20:40:00,0,28170777,201669
OK,115,92,685,115,2014-10-01T20:45:00,0,28171225,201669
OK,115,92,685,115,2014-10-01T20:50:00,0,28171662,201669
OK,115,92,685,115,2014-10-01T20:55:00,0,28172108,201669
OK,115,92,685,115,2014-10-01T21:00:00,0,28172556,201669
OK,115,92,685,115,2014-10-01T21:05:00,0,28173002,201669
OK,115,92,685,115,2014-10-01T21:10:00,0,28173448,201669
OK,115,92,685,115,2014-10-01T21:15:00,0,28173897,201669
OK,115,92,685,115,2014-10-01T21:20:00,0,28174338,201669
OK,115,92,685,115,2014-10-01T21:25:00,0,28174787,201669
OK,115,92,685,115,2014-10-01T21:35:00,0,28175609,201669
OK,115,92,685,115,2014-10-01T21:40:00,0,28176058,201669
OK,115,92,685,115,2014-10-01T21:45:00,0,28176507,201669
OK,115,92,685,115,2014-10-01T21:50:00,0,28176956,201669
OK,115,92,685,115,2014-10-01T21:55:00,0,28177312,201669
OK,115,92,685,115,2014-10-01T22:00:00,0,28177752,201669
OK,115,92,685,115,2014-10-01T22:05:00,0,28178198,201669
OK,115,92,685,115,2014-10-01T22:10:00,0,28178647,201669
OK,115,92,685,115,2014-10-01T22:15:00,0,28179094,201669
OK,115,92,685,115,2014-10-01T22:20:00,0,28179528,201669
OK,115,92,685,115,2014-10-01T22:25:00,0,28179971,201669
OK,115,92,685,115,2014-10-01T22:30:00,0,28180418,201669
OK,125,85,685,125,2014-10-01T22:35:00,1,28180816,201669
OK,143,74,685,143,2014-10-01T22:40:00,2,28181265,201669
OK,161,66,685,161,2014-10-01T22:45:00,0,28181689,201669
OK,161,66,685,161,2014-10-01T22:50:00,0,28182137,201669
OK,161,66,685,161,2014-10-01T22:55:00,0,28182584,201669
OK,161,66,685,161,2014-10-01T23:00:00,0,28183033,201669
OK,161,66,685,161,2014-10-01T23:05:00,0,28183450,201669
OK,161,66,685,161,2014-10-01T23:10:00,0,28183883,201669
OK,161,66,685,161,2014-10-01T23:15:00,0,28184328,201669
OK,161,66,685,161,2014-10-01T23:20:00,0,28184777,201669
OK,161,66,685,161,2014-10-01T23:25:00,0,28185212,201669
OK,161,66,685,161,2014-10-01T23:30:00,0,28185660,201669
OK,161,66,685,161,2014-10-01T23:40:00,0,28186483,201669
OK,161,66,685,161,2014-10-01T23:45:00,0,28187323,201669
OK,161,66,685,161,2014-10-01T23:55:00,0,28187772,201669
OK,161,66,685,161,2014-10-02T00:00:00,0,28188656,201669
OK,161,66,685,161,2014-10-02T00:10:00,0,28189098,201669
OK,161,66,685,161,2014-10-02T00:15:00,0,28189547,201669
OK,161,66,685,161,2014-10-02T00:20:00,0,28189969,201669
OK,161,66,685,161,2014-10-02T00:25:00,0,28190413,201669
OK,161,66,685,161,2014-10-02T00:30:00,0,28190771,201669
OK,161,66,685,161,2014-10-02T00:35:00,0,28191220,201669
OK,161,66,685,161,2014-10-02T00:45:00,0,28191975,201669
OK,161,66,685,161,2014-10-02T00:50:00,0,28192424,201669
OK,161,66,685,161,2014-10-02T00:55:00,0,28192857,201669
OK,161,66,685,161,2014-10-02T01:00:00,0,28193276,201669
OK,161,66,685,161,2014-10-02T01:05:00,0,28193668,201669
OK,161,66,685,161,2014-10-02T01:10:00,0,28194117,201669
OK,161,66,685,161,2014-10-02T01:15:00,0,28194566,201669
OK,161,66,685,161,2014-10-02T01:20:00,0,28195005,201669
OK,161,66,685,161,2014-10-02T01:25:00,0,28195251,201669
OK,161,66,685,161,2014-10-02T01:30:00,0,28195700,201669
OK,161,66,685,161,2014-10-02T01:35:00,0,28196149,201669
OK,161,66,685,161,2014-10-02T01:40:00,0,28196433,201669
OK,161,66,685,161,2014-10-02T01:45:00,0,28196882,201669
OK,161,66,685,161,2014-10-02T01:50:00,0,28197305,201669
OK,161,66,685,161,2014-10-02T01:55:00,0,28197754,201669
OK,161,66,685,161,2014-10-02T02:00:00,0,28198202,201669
OK,161,66,685,161,2014-10-02T02:05:00,0,28198650,201669
OK,161,66,685,161,2014-10-02T02:10:00,0,28199099,201669
OK,161,66,685,161,2014-10-02T02:15:00,0,28199471,201669
OK,161,66,685,161,2014-10-02T02:20:00,0,28199913,201669
OK,161,66,685,161,2014-10-02T02:25:00,0,28200355,201669
OK,161,66,685,161,2014-10-02T02:30:00,0,28200798,201669
OK,161,66,685,161,2014-10-02T02:35:00,0,28201247,201669
OK,148,71,685,148,2014-10-02T02:45:00,0,28201678,201669
OK,148,71,685,148,2014-10-02T02:50:00,0,28202127,201669
OK,148,71,685,148,2014-10-02T02:55:00,0,28202576,201669
OK,148,71,685,148,2014-10-02T03:00:00,0,28203018,201669
OK,148,71,685,148,2014-10-02T03:05:00,0,28203466,201669
OK,148,71,685,148,2014-10-02T03:15:00,0,28203901,201669
OK,148,71,685,148,2014-10-02T03:30:00,0,28204350,201669
OK,148,71,685,148,2014-10-02T03:35:00,0,28204799,201669
OK,148,71,685,148,2014-10-02T03:40:00,0,28205248,201669
OK,148,71,685,148,2014-10-02T03:45:00,0,28205676,201669
OK,148,71,685,148,2014-10-02T03:50:00,0,28206103,201669
OK,148,71,685,148,2014-10-02T03:55:00,0,28206506,201669
OK,173,61,685,173,2014-10-02T04:00:00,1,28206955,201669
OK,173,61,685,173,2014-10-02T04:05:00,0,28207404,201669
OK,154,69,685,154,2014-10-02T04:10:00,3,28207823,201669
OK,152,69,685,152,2014-10-02T04:15:00,0,28208272,201669
OK,180,59,685,180,2014-10-02T04:20:00,2,28208699,201669
OK,178,59,685,178,2014-10-02T04:25:00,0,28209148,201669
OK,170,62,685,170,2014-10-02T04:30:00,3,28209586,201669
OK,166,64,685,166,2014-10-02T04:35:00,1,28210035,201669
OK,150,70,685,150,2014-10-02T04:40:00,5,28210458,201669
OK,149,71,685,149,2014-10-02T04:45:00,0,28210907,201669
OK,149,71,685,149,2014-10-02T04:50:00,0,28211332,201669
OK,163,65,685,163,2014-10-02T04:55:00,3,28211776,201669
OK,205,51,685,205,2014-10-02T05:00:00,0,28212154,201669
OK,170,62,685,170,2014-10-02T05:05:00,4,28212603,201669
OK,171,62,685,171,2014-10-02T05:10:00,0,28213032,201669
OK,216,49,685,216,2014-10-02T05:15:00,1,28213481,201669
OK,216,49,685,216,2014-10-02T05:20:00,0,28213919,201669
OK,187,56,685,187,2014-10-02T05:25:00,3,28214368,201669
OK,187,56,685,187,2014-10-02T05:30:00,1,28214781,201669
OK,187,56,685,187,2014-10-02T05:35:00,0,28215230,201669
OK,191,55,685,191,2014-10-02T05:40:00,2,28215646,201669
OK,209,50,685,209,2014-10-02T05:45:00,1,28216095,201669
OK,209,50,685,209,2014-10-02T05:50:00,0,28216434,201669
OK,189,56,685,189,2014-10-02T05:55:00,5,28216874,201669
OK,202,52,685,202,2014-10-02T06:00:00,4,28217321,201669
OK,235,45,685,235,2014-10-02T06:05:00,4,28217770,201669
OK,228,46,685,228,2014-10-02T06:10:00,1,28218209,201669
OK,176,60,685,176,2014-10-02T06:15:00,6,28218658,201669
OK,202,52,685,202,2014-10-02T06:20:00,9,28219078,201669
OK,217,48,685,217,2014-10-02T06:25:00,7,28219527,201669
OK,221,48,685,221,2014-10-02T06:30:00,6,28219900,201669
OK,158,67,685,158,2014-10-02T06:35:00,3,28220349,201669
OK,226,47,685,226,2014-10-02T06:40:00,1,28220783,201669
OK,169,62,685,169,2014-10-02T06:45:00,4,28221232,201669
OK,199,53,685,199,2014-10-02T07:00:00,4,28221899,201669
OK,185,57,685,185,2014-10-02T07:05:00,6,28222044,201669
OK,168,63,685,168,2014-10-02T07:10:00,9,28222493,201669
OK,168,63,685,168,2014-10-02T07:15:00,3,28222942,201669
OK,168,63,685,168,2014-10-02T07:20:00,0,28223373,201669
OK,177,60,685,177,2014-10-02T07:25:00,3,28223808,201669
OK,216,49,685,216,2014-10-02T07:35:00,7,28224611,201669
OK,219,48,685,219,2014-10-02T07:40:00,1,28225060,201669
OK,219,48,685,219,2014-10-02T07:45:00,0,28225470,201669
OK,176,60,685,176,2014-10-02T07:50:00,2,28225831,201669
OK,212,50,685,212,2014-10-02T07:55:00,1,28226280,201669
OK,212,50,685,212,2014-10-02T08:00:00,0,28226721,201669
OK,188,56,685,188,2014-10-02T08:05:00,3,28227170,201669
OK,180,59,685,180,2014-10-02T08:10:00,2,28227585,201669
OK,171,62,685,171,2014-10-02T08:15:00,3,28228034,201669
OK,171,62,685,171,2014-10-02T08:20:00,1,28228393,201669
OK,189,56,685,189,2014-10-02T08:25:00,3,28228842,201669
OK,179,59,685,179,2014-10-02T08:30:00,0,28229252,201669
OK,271,39,685,271,2014-10-02T08:35:00,1,28229701,201669
OK,271,39,685,271,2014-10-02T08:40:00,0,28230051,201669
OK,271,39,685,271,2014-10-02T08:45:00,0,28230500,201669
OK,271,39,685,271,2014-10-02T08:50:00,0,28230866,201669
OK,271,39,685,271,2014-10-02T08:55:00,0,28231313,201669
OK,213,49,685,213,2014-10-02T09:00:00,9,28231738,201669
OK,218,48,685,218,2014-10-02T09:05:00,4,28232180,201669
OK,186,57,685,186,2014-10-02T09:15:00,2,28232529,201669
OK,149,71,685,149,2014-10-02T09:20:00,1,28232978,201669
OK,176,60,685,176,2014-10-02T09:25:00,5,28233427,201669
OK,161,66,685,161,2014-10-02T09:30:00,1,28233851,201669
OK,152,69,685,152,2014-10-02T09:40:00,0,28234633,201669
OK,195,54,685,195,2014-10-02T09:45:00,10,28235082,201669
OK,176,60,685,176,2014-10-02T09:50:00,2,28235509,201669
OK,204,52,685,204,2014-10-02T09:55:00,2,28235958,201669
OK,228,46,685,228,2014-10-02T10:00:00,0,28236401,201669
OK,228,46,685,228,2014-10-02T10:05:00,0,28236848,201669
OK,194,54,685,194,2014-10-02T10:10:00,4,28237250,201669
OK,195,54,685,195,2014-10-02T10:15:00,3,28237698,201669
OK,162,65,685,162,2014-10-02T10:20:00,2,28238147,201669
OK,162,65,685,162,2014-10-02T10:25:00,2,28238594,201669
OK,158,67,685,158,2014-10-02T10:30:00,0,28239035,201669
OK,185,57,685,185,2014-10-02T10:35:00,0,28239484,201669
OK,174,61,685,174,2014-10-02T10:40:00,3,28239914,201669
OK,174,61,685,174,2014-10-02T10:45:00,5,28240363,201669
OK,275,38,685,275,2014-10-02T10:50:00,2,28240807,201669
OK,180,59,685,180,2014-10-02T10:55:00,3,28241256,201669
OK,180,59,685,180,2014-10-02T11:00:00,1,28241688,201669
OK,180,59,685,180,2014-10-02T11:05:00,0,28242136,201669
OK,163,65,685,163,2014-10-02T11:10:00,7,28242532,201669
OK,266,39,685,266,2014-10-02T11:15:00,5,28242981,201669
OK,210,50,685,210,2014-10-02T11:20:00,1,28243430,201669
OK,210,50,685,210,2014-10-02T11:25:00,0,28243755,201669
OK,210,50,685,210,2014-10-02T11:30:00,0,28244193,201669
OK,188,56,685,188,2014-10-02T11:35:00,8,28244622,201669
OK,192,55,685,192,2014-10-02T11:40:00,4,28245071,201669
OK,193,55,685,193,2014-10-02T11:45:00,0,28245520,201669
OK,184,57,685,184,2014-10-02T11:50:00,11,28245926,201669
OK,161,66,685,161,2014-10-02T11:55:00,9,28246375,201669
OK,141,75,685,141,2014-10-02T12:00:00,5,28246812,201669
OK,197,53,685,197,2014-10-02T12:05:00,2,28247260,201669
OK,131,81,685,131,2014-10-02T12:10:00,0,28247707,201669
OK,172,61,685,172,2014-10-02T12:15:00,3,28248137,201669
OK,172,61,685,172,2014-10-02T12:20:00,1,28248586,201669
OK,160,66,685,160,2014-10-02T12:25:00,7,28249033,201669
OK,154,69,685,154,2014-10-02T12:30:00,1,28249461,201669
OK,192,55,685,192,2014-10-02T12:35:00,1,28249905,201669
OK,192,55,685,192,2014-10-02T12:40:00,0,28250289,201669
OK,212,50,685,212,2014-10-02T12:45:00,6,28250722,201669
OK,212,50,685,212,2014-10-02T13:20:00,10,28251582,201669
OK,167,63,685,167,2014-10-02T13:30:00,4,28252047,201669
OK,156,68,685,156,2014-10-02T13:35:00,0,28252184,201669
OK,156,68,685,156,2014-10-02T13:40:00,0,28252631,201669
OK,178,59,685,178,2014-10-02T13:45:00,6,28253073,201669
OK,179,59,685,179,2014-10-02T13:50:00,5,28253490,201669
OK,217,48,685,217,2014-10-02T13:55:00,5,28253939,201669
OK,176,60,685,176,2014-10-02T14:10:00,1,28254670,201669
OK,218,48,685,218,2014-10-02T14:15:00,2,28254793,201669
OK,223,47,685,223,2014-10-02T14:20:00,7,28255242,201669
OK,220,48,685,220,2014-10-02T14:25:00,3,28255691,201669
OK,204,52,685,204,2014-10-02T14:30:00,9,28256119,201669
OK,204,52,685,204,2014-10-02T14:35:00,3,28256568,201669
OK,182,58,685,182,2014-10-02T14:40:00,2,28256996,201669
OK,171,62,685,171,2014-10-02T14:45:00,4,28257445,201669
OK,169,62,685,169,2014-10-02T14:50:00,5,28257886,201669